Weather History for Waseca, MN

Change the Weather History Date:

Wednesday, November 30, 2011

  Actual Average Record
Temperature  
Mean Temperature 30 °F -  
Max Temperature 44 °F 33 °F 64 °F (1922)
Min Temperature 17 °F 16 °F -14 °F (1929)
Degree Days  
Heating Degree Days 34    
Moisture  
Dew Point 15 °F    
Average Humidity 50    
Maximum Humidity 73    
Minimum Humidity 36    
Precipitation  
Precipitation 0.00 in - - ()
Sea Level Pressure  
Sea Level Pressure 29.97 in    
Wind  
Wind Speed 7 mph (South)    
Max Wind Speed 18 mph    
Max Gust Speed 23 mph    
Visibility 10 miles    
Events      
Averages and records for this station are not official NWS values.
T = Trace of Precipitation, MM = Missing Value Source: NWS Daily Summary

Daily Weather History Graph

Daily Weather History Graph

Search for Another Location

Airport:

Trip Planner

Search our weather history database for the weather conditions in past years. The results will help you decide how hot, cold, wet, or windy it might be!

Date:

Astronomy

Nov. 30, 2011 Rise Set
Actual Time 7:27 AM CST 4:37 PM CST
Civil Twilight 6:55 AM CST 5:10 PM CST
Nautical Twilight 6:19 AM CST 5:45 PM CST
Astronomical Twilight 5:44 AM CST 6:20 PM CST
Moon 11:39 AM CST (11/30) 10:42 PM CST (11/30)
Length of Visible Light 10h 14m
Length of Day
9h 09m
Waxing Crescent, 34% of the Moon is Illuminated
Nov 30
Waxing Crescent
Dec 2
First Quarter
Dec 10
Full
Dec 17
Last Quarter
Dec 24
New

Hourly Weather History & Observations

Time (CST) Temp. Windchill Dew Point Humidity Pressure Visibility Wind Dir Wind Speed Gust Speed Precip Events Conditions
12:16 AM 17.6 °F 12.3 °F 10.4 °F 73% 30.12 in 10.0 mi South 3.5 mph - N/A   Clear
12:36 AM 17.6 °F 10.7 °F 10.4 °F 73% 30.11 in 10.0 mi South 4.6 mph - N/A   Clear
12:55 AM 17.6 °F 10.7 °F 8.6 °F 68% 30.10 in 10.0 mi South 4.6 mph - N/A   Clear
1:16 AM 17.6 °F 10.7 °F 10.4 °F 73% 30.09 in 10.0 mi South 4.6 mph - N/A   Clear
1:36 AM 17.6 °F 9.3 °F 10.4 °F 73% 30.08 in 10.0 mi South 5.8 mph - N/A   Clear
1:56 AM 19.4 °F 10.4 °F 10.4 °F 68% 30.07 in 10.0 mi South 6.9 mph - N/A   Clear
2:16 AM 19.4 °F 12.8 °F 10.4 °F 68% 30.06 in 10.0 mi South 4.6 mph - N/A   Clear
2:36 AM 21.2 °F 14.9 °F 10.4 °F 63% 30.06 in 10.0 mi South 4.6 mph - N/A   Clear
2:56 AM 21.2 °F 16.4 °F 10.4 °F 63% 30.06 in 10.0 mi SSW 3.5 mph - N/A   Clear
3:16 AM 21.2 °F - 10.4 °F 63% 30.06 in 10.0 mi Calm Calm - N/A   Clear
3:36 AM 21.2 °F - 8.6 °F 58% 30.05 in 10.0 mi Calm Calm - N/A   Clear
3:56 AM 19.4 °F 12.8 °F 8.6 °F 63% 30.05 in 10.0 mi South 4.6 mph - N/A   Clear
4:16 AM 21.2 °F 12.6 °F 10.4 °F 63% 30.04 in 10.0 mi South 6.9 mph - N/A   Clear
4:36 AM 21.2 °F 12.6 °F 8.6 °F 58% 30.03 in 10.0 mi South 6.9 mph - N/A   Clear
4:56 AM 21.2 °F 13.6 °F 8.6 °F 58% 30.03 in 10.0 mi South 5.8 mph - N/A   Clear
5:16 AM 21.2 °F 12.6 °F 8.6 °F 58% 30.02 in 10.0 mi South 6.9 mph - N/A   Clear
5:56 AM 21.2 °F 11.7 °F 8.6 °F 58% 30.01 in 10.0 mi South 8.1 mph - N/A   Clear
6:36 AM 24.8 °F 14.6 °F 10.4 °F 54% 29.99 in 10.0 mi South 10.4 mph - N/A   Clear
6:56 AM 26.6 °F 17.5 °F 10.4 °F 51% 29.98 in 10.0 mi South 9.2 mph - N/A   Clear
7:16 AM 26.6 °F 16.2 °F 10.4 °F 51% 29.98 in 10.0 mi South 11.5 mph - N/A   Clear
7:36 AM 26.6 °F 16.8 °F 10.4 °F 51% 29.98 in 10.0 mi South 10.4 mph - N/A   Clear
7:56 AM 28.4 °F 18.5 °F 12.2 °F 51% 29.97 in 10.0 mi South 11.5 mph - N/A   Clear
8:16 AM 28.4 °F 17.5 °F 12.2 °F 51% 29.97 in 10.0 mi South 13.8 mph - N/A   Clear
8:36 AM 32.0 °F 21.6 °F 12.2 °F 44% 29.97 in 10.0 mi South 15.0 mph - N/A   Clear
8:56 AM 32.0 °F 21.6 °F 14.0 °F 48% 29.97 in 10.0 mi SSW 15.0 mph - N/A   Clear
9:16 AM 32.0 °F 21.2 °F 12.2 °F 44% 29.97 in 10.0 mi SSW 16.1 mph - N/A   Clear
9:36 AM 33.8 °F 24.3 °F 12.2 °F 41% 29.97 in 10.0 mi South 13.8 mph - N/A   Clear
9:56 AM 33.8 °F 25.3 °F 12.2 °F 41% 29.97 in 10.0 mi South 11.5 mph - N/A   Clear
10:16 AM 33.8 °F 24.3 °F 14.0 °F 44% 29.97 in 10.0 mi SSW 13.8 mph - N/A   Scattered Clouds
10:36 AM 35.6 °F 27.1 °F 15.8 °F 44% 29.96 in 10.0 mi South 12.7 mph 18.4 mph N/A   Overcast
10:56 AM 35.6 °F 27.1 °F 14.0 °F 41% 29.96 in 10.0 mi SSW 12.7 mph - N/A   Overcast
11:17 AM 37.4 °F 30.3 °F 14.0 °F 38% 29.94 in 10.0 mi South 10.4 mph - N/A   Overcast
11:36 AM 39.2 °F 30.2 °F 15.8 °F 39% 29.93 in 10.0 mi SSW 17.3 mph 23.0 mph N/A   Mostly Cloudy
11:56 AM 39.2 °F 32.0 °F 15.8 °F 39% 29.93 in 10.0 mi SSW 11.5 mph - N/A   Scattered Clouds
12:17 PM 39.2 °F 30.5 °F 15.8 °F 39% 29.92 in 10.0 mi SSW 16.1 mph - N/A   Clear
12:36 PM 39.2 °F 32.0 °F 17.6 °F 42% 29.91 in 10.0 mi SSW 11.5 mph - N/A   Scattered Clouds
12:56 PM 42.8 °F 35.8 °F 17.6 °F 36% 29.90 in 10.0 mi South 13.8 mph 18.4 mph N/A   Scattered Clouds
1:16 PM 42.8 °F 35.1 °F 17.6 °F 36% 29.89 in 10.0 mi SSW 16.1 mph 23.0 mph N/A   Clear
1:36 PM 42.8 °F 34.5 °F 17.6 °F 36% 29.89 in 10.0 mi SSW 18.4 mph - N/A   Clear
1:56 PM 42.8 °F 35.1 °F 17.6 °F 36% 29.89 in 10.0 mi SSW 16.1 mph 19.6 mph N/A   Clear
2:16 PM 42.8 °F 37.0 °F 17.6 °F 36% 29.88 in 10.0 mi SSW 10.4 mph - N/A   Scattered Clouds
2:36 PM 44.6 °F 38.4 °F 19.4 °F 37% 29.88 in 10.0 mi SSW 12.7 mph - N/A   Scattered Clouds
2:56 PM 42.8 °F 39.3 °F 19.4 °F 39% 29.88 in 10.0 mi SSW 5.8 mph - N/A   Scattered Clouds
3:16 PM 42.8 °F 39.3 °F 19.4 °F 39% 29.89 in 10.0 mi South 5.8 mph - N/A   Mostly Cloudy
3:37 PM 42.8 °F 38.0 °F 19.4 °F 39% 29.89 in 10.0 mi South 8.1 mph - N/A   Mostly Cloudy
3:56 PM 42.8 °F 38.0 °F 19.4 °F 39% 29.90 in 10.0 mi South 8.1 mph - N/A   Overcast
4:17 PM 42.8 °F 39.3 °F 19.4 °F 39% 29.90 in 10.0 mi South 5.8 mph - N/A   Overcast
4:36 PM 42.8 °F 38.6 °F 19.4 °F 39% 29.91 in 10.0 mi South 6.9 mph - N/A   Overcast
4:56 PM 42.8 °F 40.1 °F 19.4 °F 39% 29.91 in 10.0 mi SSE 4.6 mph - N/A   Mostly Cloudy
5:16 PM 39.2 °F 35.0 °F 19.4 °F 45% 29.91 in 10.0 mi SE 5.8 mph - N/A   Scattered Clouds
5:36 PM 39.2 °F 34.2 °F 21.2 °F 49% 29.92 in 10.0 mi SE 6.9 mph - N/A   Clear
5:56 PM 39.2 °F 33.6 °F 19.4 °F 45% 29.92 in 10.0 mi SSE 8.1 mph - N/A   Clear
6:16 PM 39.2 °F 33.6 °F 19.4 °F 45% 29.93 in 10.0 mi SSE 8.1 mph - N/A   Mostly Cloudy
6:36 PM 39.2 °F 34.2 °F 19.4 °F 45% 29.93 in 10.0 mi South 6.9 mph - N/A   Scattered Clouds
6:56 PM 39.2 °F 35.9 °F 21.2 °F 49% 29.94 in 10.0 mi South 4.6 mph - N/A   Clear
7:16 PM 37.4 °F 34.9 °F 21.2 °F 52% 29.95 in 10.0 mi South 3.5 mph - N/A   Clear
7:36 PM 35.6 °F 31.7 °F 19.4 °F 52% 29.96 in 10.0 mi South 4.6 mph - N/A   Clear
8:16 PM 35.6 °F 31.7 °F 19.4 °F 52% 29.97 in 10.0 mi SSW 4.6 mph - N/A   Clear
8:36 PM 35.6 °F 31.7 °F 19.4 °F 52% 29.97 in 10.0 mi South 4.6 mph - N/A   Clear
8:56 PM 35.6 °F 30.7 °F 21.2 °F 56% 29.98 in 10.0 mi South 5.8 mph - N/A   Clear
9:16 PM 35.6 °F 30.7 °F 21.2 °F 56% 29.98 in 10.0 mi SSW 5.8 mph - N/A   Clear
9:37 PM 35.6 °F - 21.2 °F 56% 29.99 in 10.0 mi Calm Calm - N/A   Clear
9:56 PM 33.8 °F - 21.2 °F 60% 30.00 in 10.0 mi Calm Calm - N/A   Clear
10:16 PM 35.6 °F - 21.2 °F 56% 30.01 in 10.0 mi Calm Calm - N/A   Clear
10:36 PM 32.0 °F - 21.2 °F 64% 30.01 in 10.0 mi Calm Calm - N/A   Clear
10:56 PM 33.8 °F - 21.2 °F 60% 30.03 in 10.0 mi Calm Calm - N/A   Scattered Clouds
11:15 PM 33.8 °F - 21.2 °F 60% 30.04 in 10.0 mi Calm Calm - N/A   Overcast
11:36 PM 32.0 °F 28.7 °F 21.2 °F 64% 30.05 in 10.0 mi NNW 3.5 mph - N/A   Overcast
11:56 PM 33.8 °F 26.4 °F 23.0 °F 65% 30.06 in 10.0 mi NNE 9.2 mph - N/A   Overcast